FW6455 Weather Reports


Display with metric or nautical units.
time (UTC)temp
F
wind
direction
speed
MPH
gust
MPH
rain 1hr
in
rain 24hr
in
rain mn
in
humidity
%
barometer
mb
20260904201039 98 148 1.0 4.0 0.00 0.00 0.00 46 1013.9
20260904200539 97 202 1.0 3.0 0.00 0.00 0.00 47 1014.0
20260904200116 97 158 0.0 3.0 0.00 0.00 0.00 46 1014.1
20260904195541 97 0 0.0 3.0 0.00 0.00 0.00 46 1014.2
20260904195042 98 179 1.0 3.0 0.00 0.00 0.00 45 1014.4
20260904194606 97 169 0.0 3.0 0.00 0.00 0.00 47 1014.4
20260904194041 98 96 1.0 3.0 0.00 0.00 0.00 46 1014.4
20260904193541 97 0 0.0 2.0 0.00 0.00 0.00 47 1014.6
20260904193104 97 200 1.0 2.0 0.00 0.00 0.00 47 1014.7
20260904192541 97 254 0.0 4.0 0.00 0.00 0.00 48 1014.7
20260904192043 98 0 1.0 4.0 0.00 0.00 0.00 47 1014.7
20260904191559 98 274 1.0 4.0 0.00 0.00 0.00 48 1014.6
20260904191040 98 180 1.0 3.0 0.00 0.00 0.00 47 1014.7
20260904190543 97 151 1.0 4.0 0.00 0.00 0.00 48 1014.7
20260904190059 96 176 1.0 4.0 0.00 0.00 0.00 49 1014.9
20260904185540 97 30 2.0 4.0 0.00 0.00 0.00 48 1015.0
20260904185040 97 159 2.0 4.0 0.00 0.00 0.00 49 1015.1
20260904184610 97 96 1.0 3.0 0.00 0.00 0.00 49 1015.1
20260904184040 97 136 0.0 3.0 0.00 0.00 0.00 48 1015.2
20260904183537 97 172 1.0 4.0 0.00 0.00 0.00 47 1015.2
20260904183110 97 0 0.0 4.0 0.00 0.00 0.00 48 1015.2
20260904182544 96 163 1.0 4.0 0.00 0.00 0.00 48 1015.4
20260904182038 96 200 1.0 5.0 0.00 0.00 0.00 49 1015.5
20260904181607 96 169 2.0 5.0 0.00 0.00 0.00 49 1015.5
20260904181041 96 146 2.0 5.0 0.00 0.00 0.00 50 1015.5
20260904180540 96 167 2.0 4.0 0.00 0.00 0.00 50 1015.6
20260904180112 95 129 1.0 4.0 0.00 0.00 0.00 50 1015.7
20260904175540 96 180 1.0 3.0 0.00 0.00 0.00 51 1015.8
20260904175042 95 75 1.0 4.0 0.00 0.00 0.00 51 1015.8
20260904174602 95 61 2.0 4.0 0.00 0.00 0.00 52 1015.9
20260904174040 95 94 1.0 3.0 0.00 0.00 0.00 52 1016.1
20260904173540 95 232 0.0 3.0 0.00 0.00 0.00 52 1016.0
20260904173105 94 188 1.0 5.0 0.00 0.00 0.00 52 1016.2
20260904172540 94 0 0.0 5.0 0.00 0.00 0.00 52 1016.2
20260904172040 94 216 1.0 5.0 0.00 0.00 0.00 52 1016.3
20260904171605 93 129 1.0 4.0 0.00 0.00 0.00 51 1016.3
20260904171040 93 209 1.0 4.0 0.00 0.00 0.00 52 1016.4
20260904170541 93 197 1.0 4.0 0.00 0.00 0.00 52 1016.4
20260904170107 92 304 1.0 4.0 0.00 0.00 0.00 53 1016.4
20260904165540 92 194 2.0 5.0 0.00 0.00 0.00 53 1016.4
20260904165039 92 206 0.0 5.0 0.00 0.00 0.00 54 1016.4
20260904164604 92 146 1.0 3.0 0.00 0.00 0.00 57 1016.5
20260904164045 92 163 1.0 3.0 0.00 0.00 0.00 56 1016.5
20260904163540 92 153 1.0 3.0 0.00 0.00 0.00 58 1016.5
20260904163104 92 214 0.0 2.0 0.00 0.00 0.00 59 1016.6
20260904162538 91 144 0.0 2.0 0.00 0.00 0.00 60 1016.6
20260904162040 91 0 1.0 3.0 0.00 0.00 0.00 60 1016.6
20260904161604 90 169 1.0 3.0 0.00 0.00 0.00 62 1016.5
20260904161041 90 191 1.0 4.0 0.00 0.00 0.00 63 1016.5
20260904160540 89 202 1.0 4.0 0.00 0.00 0.00 63 1016.6
20260904160105 89 193 1.0 4.0 0.00 0.00 0.00 65 1016.6
20260904155540 89 212 1.0 4.0 0.00 0.00 0.00 66 1016.6
20260904155040 89 101 1.0 4.0 0.00 0.00 0.00 66 1016.5
20260904154603 88 238 1.0 4.0 0.00 0.00 0.00 67 1016.6
20260904154040 88 147 1.0 4.0 0.00 0.00 0.00 67 1016.6
20260904153541 88 211 1.0 4.0 0.00 0.00 0.00 68 1016.5
20260904153110 88 175 1.0 4.0 0.00 0.00 0.00 69 1016.4
20260904152541 87 193 0.0 4.0 0.00 0.00 0.00 72 1016.4
20260904152043 87 198 1.0 4.0 0.00 0.00 0.00 72 1016.4
20260904151606 86 174 1.0 4.0 0.00 0.00 0.00 74 1016.3
20260904151040 86 174 1.0 3.0 0.00 0.00 0.00 75 1016.2
20260904150540 85 0 0.0 3.0 0.00 0.00 0.00 77 1016.2
20260904150110 85 192 1.0 3.0 0.00 0.00 0.00 78 1016.2
20260904145541 84 124 0.0 2.0 0.00 0.00 0.00 80 1016.2
20260904145040 84 0 0.0 2.0 0.00 0.00 0.00 81 1016.2
20260904144601 83 135 0.0 2.0 0.00 0.00 0.00 82 1016.2
20260904144040 83 169 1.0 2.0 0.00 0.00 0.00 82 1016.3
20260904143541 83 232 0.0 2.0 0.00 0.00 0.00 84 1016.2
20260904143058 82 0 0.0 2.0 0.00 0.00 0.00 85 1016.3
20260904142540 82 191 0.0 2.0 0.00 0.00 0.00 86 1016.3
20260904142041 81 115 0.0 2.0 0.00 0.00 0.00 87 1016.2
20260904141614 80 0 0.0 1.0 0.00 0.00 0.00 88 1016.1
20260904141040 80 199 0.0 1.0 0.00 0.00 0.00 88 1016.2
20260904140540 80 0 0.0 1.0 0.00 0.00 0.00 89 1016.2
20260904140106 80 143 0.0 2.0 0.00 0.00 0.00 89 1016.2
20260904135540 79 0 0.0 2.0 0.00 0.00 0.00 90 1016.4
20260904135038 79 0 0.0 1.0 0.00 0.00 0.00 90 1016.4
20260904134605 79 195 0.0 1.0 0.00 0.00 0.00 91 1016.2
20260904134039 78 0 0.0 1.0 0.00 0.00 0.00 91 1016.3
20260904133539 78 0 0.0 1.0 0.00 0.00 0.00 91 1016.4
20260904133102 78 0 0.0 1.0 0.00 0.00 0.00 91 1016.4
20260904132541 78 0 0.0 1.0 0.00 0.00 0.00 91 1016.3
20260904132043 78 156 0.0 2.0 0.00 0.00 0.00 91 1016.2
20260904131639 77 191 0.0 2.0 0.00 0.00 0.00 92 1016.2
20260904131040 77 0 0.0 1.0 0.00 0.00 0.00 92 1016.3
20260904130540 77 151 0.0 2.0 0.00 0.00 0.00 92 1016.2
20260904130106 76 0 0.0 2.0 0.00 0.00 0.00 93 1016.0
20260904125540 76 0 0.0 2.0 0.00 0.00 0.00 93 1016.0
20260904125043 76 0 0.0 1.0 0.00 0.00 0.00 93 1015.8
20260904124600 76 0 0.0 1.0 0.00 0.00 0.00 93 1015.6
20260904124040 75 0 0.0 1.0 0.00 0.00 0.00 93 1015.7
20260904123540 75 0 0.0 1.0 0.00 0.00 0.00 93 1015.5
20260904123108 75 0 0.0 1.0 0.00 0.00 0.00 93 1015.5
20260904122541 75 0 0.0 1.0 0.00 0.00 0.00 93 1015.4
20260904122041 75 0 0.0 1.0 0.00 0.00 0.00 93 1015.4
20260904121600 75 0 0.0 1.0 0.00 0.00 0.00 93 1015.4
20260904121042 75 0 0.0 1.0 0.00 0.00 0.00 93 1015.3
20260904120542 75 0 0.0 1.0 0.00 0.00 0.00 93 1015.3
20260904120108 75 0 0.0 1.0 0.00 0.00 0.00 93 1015.3
20260904115541 75 0 0.0 0.0 0.00 0.00 0.00 92 1015.2
20260904115041 75 0 0.0 1.0 0.00 0.00 0.00 92 1015.2
20260904114602 75 156 0.0 1.0 0.00 0.00 0.00 92 1015.1
20260904114041 75 0 0.0 1.0 0.00 0.00 0.00 92 1015.0
20260904113543 75 0 0.0 1.0 0.00 0.00 0.00 92 1015.1
20260904113101 75 0 0.0 1.0 0.00 0.00 0.00 92 1015.1
20260904112540 75 0 0.0 1.0 0.00 0.00 0.00 91 1015.0
20260904112041 75 0 0.0 1.0 0.00 0.00 0.00 91 1015.1
20260904111602 75 0 0.0 0.0 0.00 0.00 0.00 91 1014.9
20260904111039 75 0 0.0 1.0 0.00 0.00 0.00 91 1014.8
20260904110540 75 0 0.0 1.0 0.00 0.00 0.00 91 1014.8
20260904110107 75 0 0.0 1.0 0.00 0.00 0.00 91 1015.0
20260904105540 75 0 0.0 1.0 0.00 0.00 0.00 90 1014.9
20260904105041 75 0 0.0 1.0 0.00 0.00 0.00 90 1015.0
20260904104612 75 0 0.0 1.0 0.00 0.00 0.00 90 1015.0
20260904104040 75 0 0.0 1.0 0.00 0.00 0.00 90 1015.0
20260904103539 75 83 0.0 1.0 0.00 0.00 0.00 90 1014.9
20260904103106 75 0 0.0 1.0 0.00 0.00 0.00 90 1014.7
20260904102541 75 84 0.0 1.0 0.00 0.00 0.00 90 1014.6
20260904102040 76 0 0.0 1.0 0.00 0.00 0.00 90 1014.6
20260904101606 76 0 0.0 1.0 0.00 0.00 0.00 90 1014.7
20260904101041 76 116 0.0 1.0 0.00 0.00 0.00 90 1014.6
20260904100543 76 0 0.0 0.0 0.00 0.00 0.00 89 1014.6
20260904100056 76 0 0.0 0.0 0.00 0.00 0.00 89 1014.4
20260904095540 76 0 0.0 0.0 0.00 0.00 0.00 89 1014.4
20260904095041 76 0 0.0 0.0 0.00 0.00 0.00 89 1014.4
20260904094605 76 0 0.0 0.0 0.00 0.00 0.00 89 1014.5
20260904094040 76 0 0.0 0.0 0.00 0.00 0.00 88 1014.4
20260904093540 76 0 0.0 1.0 0.00 0.00 0.00 88 1014.4
20260904093103 76 0 0.0 1.0 0.00 0.00 0.00 88 1014.5
20260904092539 76 0 0.0 0.0 0.00 0.00 0.00 88 1014.4
20260904092039 76 0 0.0 0.0 0.00 0.00 0.00 88 1014.6
20260904091604 77 0 0.0 0.0 0.00 0.00 0.00 88 1014.5
20260904091040 77 0 0.0 0.0 0.00 0.00 0.00 88 1014.6
20260904090537 77 0 0.0 1.0 0.00 0.00 0.00 88 1014.4
20260904090104 77 0 0.0 1.0 0.00 0.00 0.00 88 1014.6
20260904085537 77 0 0.0 1.0 0.00 0.00 0.00 88 1014.6
20260904085040 77 0 0.0 0.0 0.00 0.00 0.00 88 1014.6
20260904084602 77 0 0.0 0.0 0.00 0.00 0.00 87 1014.5
20260904084040 77 0 0.0 0.0 0.00 0.00 0.00 87 1014.5
20260904083544 77 0 0.0 0.0 0.00 0.00 0.00 87 1014.5
20260904083106 78 0 0.0 0.0 0.00 0.00 0.00 87 1014.3
20260904082538 78 0 0.0 0.0 0.00 0.00 0.00 87 1014.4
20260904082038 78 0 0.0 0.0 0.00 0.00 0.00 87 1014.5
20260904081602 78 194 0.0 0.0 0.00 0.00 0.00 87 1014.5
20260904081039 78 0 0.0 0.0 0.00 0.00 0.00 86 1014.5
20260904080540 78 0 0.0 0.0 0.00 0.00 0.00 86 1014.5
20260904080100 78 0 0.0 0.0 0.00 0.00 0.00 86 1014.5
20260904075540 78 0 0.0 0.0 0.00 0.00 0.00 86 1014.4
20260904075040 78 0 0.0 0.0 0.00 0.00 0.00 86 1014.4
20260904074636 78 0 0.0 0.0 0.00 0.00 0.00 86 1014.2
20260904074038 78 0 0.0 0.0 0.00 0.00 0.00 85 1014.4
20260904073540 78 0 0.0 0.0 0.00 0.00 0.00 85 1014.4
20260904073104 79 0 0.0 0.0 0.00 0.00 0.00 85 1014.5
20260904072539 79 0 0.0 0.0 0.00 0.00 0.00 85 1014.5
20260904072039 79 0 0.0 0.0 0.00 0.00 0.00 85 1014.4
20260904071602 79 0 0.0 0.0 0.00 0.00 0.00 84 1014.4
20260904071037 79 195 0.0 0.0 0.00 0.00 0.00 84 1014.5
20260904070537 79 0 0.0 0.0 0.00 0.00 0.00 84 1014.5
20260904070059 79 0 0.0 0.0 0.00 0.00 0.00 84 1014.5
20260904065540 79 0 0.0 0.0 0.00 0.00 0.00 84 1014.6
20260904065040 79 0 0.0 0.0 0.00 0.00 0.00 84 1014.7
20260904064554 79 0 0.0 0.0 0.00 0.00 0.00 84 1014.7
20260904064040 79 192 0.0 0.0 0.00 0.00 0.00 84 1014.8
20260904063540 79 192 0.0 0.0 0.00 0.00 0.00 83 1014.7
20260904063112 79 0 0.0 1.0 0.00 0.00 0.00 83 1014.8
20260904062543 79 192 0.0 1.0 0.00 0.00 0.00 83 1014.9
20260904062039 79 197 0.0 0.0 0.00 0.00 0.00 83 1014.9
20260904061603 79 0 0.0 0.0 0.00 0.00 0.00 83 1014.8
20260904061037 79 0 0.0 1.0 0.00 0.00 0.00 82 1014.8
20260904060537 79 0 0.0 1.0 0.00 0.00 0.00 82 1014.7
20260904060112 79 0 0.0 0.0 0.00 0.00 0.00 82 1014.7
20260904055540 79 205 0.0 1.0 0.00 0.00 0.00 82 1014.7
20260904055039 79 0 0.0 1.0 0.00 0.00 0.00 81 1014.7
20260904054608 79 0 0.0 1.0 0.00 0.00 0.00 81 1014.7
20260904054040 79 0 0.0 0.0 0.00 0.00 0.00 81 1014.7
20260904053540 79 0 0.0 0.0 0.00 0.00 0.00 81 1014.7
20260904053057 79 0 0.0 0.0 0.00 0.00 0.00 81 1014.7
20260904052540 79 0 0.0 0.0 0.00 0.00 0.00 81 1014.6
20260904052038 79 167 0.0 1.0 0.00 0.00 0.00 81 1014.8
20260904051603 79 0 0.0 1.0 0.00 0.00 0.00 80 1014.7
20260904051039 79 0 0.0 0.0 0.00 0.00 0.00 80 1014.6
20260904050539 79 0 0.0 1.0 0.00 0.00 0.00 80 1014.7
20260904050057 79 0 0.0 1.0 0.00 0.00 0.00 80 1014.8
20260904045540 79 176 0.0 1.0 0.00 0.00 0.00 80 1014.7
20260904045042 79 0 0.0 0.0 0.00 0.00 0.00 80 1014.8
20260904044607 79 0 0.0 1.0 0.00 0.00 0.00 80 1014.9
20260904044038 79 0 0.0 1.0 0.00 0.00 0.00 80 1014.9
20260904043540 79 176 0.0 1.0 0.00 0.00 0.00 79 1014.8
20260904043100 79 0 0.0 3.0 0.00 0.00 0.00 79 1014.9
20260904042537 79 0 0.0 3.0 0.00 0.00 0.00 79 1015.0
20260904042041 79 221 0.0 3.0 0.00 0.00 0.00 78 1014.9
20260904041609 79 201 0.0 1.0 0.00 0.00 0.00 78 1014.9
20260904041037 79 0 0.0 1.0 0.00 0.00 0.00 78 1015.1
20260904040540 79 0 0.0 1.0 0.00 0.00 0.00 77 1015.1
20260904040104 79 0 0.0 1.0 0.00 0.00 0.00 77 1015.0
20260904035540 79 191 0.0 1.0 0.00 0.00 0.00 77 1014.9
20260904035040 79 0 0.0 1.0 0.00 0.00 0.00 76 1015.1
20260904034612 79 0 0.0 1.0 0.00 0.00 0.00 76 1015.0
20260904034037 79 0 0.0 1.0 0.00 0.00 0.00 75 1015.0
20260904033537 79 0 0.0 1.0 0.00 0.00 0.00 75 1015.1
20260904033105 79 0 0.0 1.0 0.00 0.00 0.00 74 1015.1
20260904032540 79 0 0.0 1.0 0.00 0.00 0.00 74 1015.1
20260904032036 79 109 0.0 2.0 0.00 0.00 0.00 74 1015.1
20260904031604 79 0 0.0 2.0 0.00 0.00 0.00 73 1015.1
20260904031037 79 0 0.0 2.0 0.00 0.00 0.00 73 1015.0
20260904030544 80 0 0.0 2.0 0.00 0.00 0.00 72 1014.9
20260904025543 80 0 0.0 1.0 0.00 0.00 0.00 72 1014.9
20260904025037 80 0 0.0 1.0 0.00 0.00 0.00 72 1014.9
20260904024602 80 91 0.0 1.0 0.00 0.00 0.00 72 1014.8
20260904024037 80 91 0.0 2.0 0.00 0.00 0.00 72 1014.6
20260904023537 80 0 0.0 3.0 0.00 0.00 0.00 71 1014.6
20260904023108 80 110 0.0 4.0 0.00 0.00 0.00 71 1014.5
20260904022541 80 0 0.0 4.0 0.00 0.00 0.00 71 1014.4
20260904022041 81 0 0.0 3.0 0.00 0.00 0.00 71 1014.2
20260904021601 81 0 0.0 3.0 0.00 0.00 0.00 71 1014.1
20260904021039 81 193 0.0 3.0 0.00 0.00 0.00 71 1014.1
20260904020539 81 0 0.0 3.0 0.00 0.00 0.00 71 1014.2
20260904020107 81 120 1.0 3.0 0.00 0.00 0.00 71 1014.1
20260904015539 81 184 0.0 3.0 0.00 0.00 0.00 72 1014.1
20260904015040 81 134 0.0 3.0 0.00 0.00 0.00 73 1014.1
20260904014608 82 120 0.0 2.0 0.00 0.00 0.00 73 1013.9
20260904014037 82 0 0.0 3.0 0.00 0.00 0.00 73 1014.0
20260904013540 82 104 0.0 3.0 0.00 0.00 0.00 73 1013.8
20260904013059 82 0 0.0 1.0 0.00 0.00 0.00 73 1013.8
20260904012542 82 0 0.0 4.0 0.00 0.00 0.00 73 1013.7
20260904012040 82 216 0.0 4.0 0.00 0.00 0.00 72 1013.6
20260904011600 82 124 1.0 4.0 0.00 0.00 0.00 72 1013.5
20260904011041 83 186 0.0 1.0 0.00 0.00 0.00 72 1013.7
20260904010539 83 0 0.0 1.0 0.00 0.00 0.00 71 1013.7
20260904010105 83 0 0.0 3.0 0.00 0.00 0.00 71 1013.5
20260904005539 83 173 0.0 3.0 0.00 0.00 0.00 70 1013.6
20260904005037 84 109 1.0 3.0 0.00 0.00 0.00 70 1013.7
20260904004605 84 114 0.0 2.0 0.00 0.00 0.00 71 1013.7
20260904004042 84 194 0.0 4.0 0.00 0.00 0.00 70 1013.6
20260904003539 84 200 0.0 4.0 0.00 0.00 0.00 70 1013.5
20260904003101 85 189 1.0 4.0 0.00 0.00 0.00 69 1013.5
20260904002540 85 203 1.0 4.0 0.00 0.00 0.00 69 1013.6
20260904002042 85 129 1.0 4.0 0.00 0.00 0.00 70 1013.6
20260904001600 85 167 1.0 4.0 0.00 0.00 0.00 71 1013.5
20260904001039 86 165 2.0 4.0 0.00 0.00 0.00 71 1013.4
20260904000542 86 102 1.0 4.0 0.00 0.00 0.00 69 1013.3
20260904000134 86 141 1.0 7.0 0.00 0.00 0.00 69 1013.3
20260903235539 86 136 2.0 7.0 0.00 0.00 0.00 69 1013.2
20260903235039 87 124 2.0 6.0 0.00 0.00 0.00 68 1013.1
20260903234603 87 119 1.0 5.0 0.00 0.00 0.00 66 1013.1
20260903234040 88 96 1.0 3.0 0.00 0.00 0.00 65 1013.1
20260903233541 88 214 1.0 3.0 0.00 0.00 0.00 64 1013.0
20260903233103 88 203 1.0 5.0 0.00 0.00 0.00 63 1013.0
20260903232537 88 140 1.0 5.0 0.00 0.00 0.00 62 1013.0
20260903232037 88 130 2.0 5.0 0.00 0.00 0.00 62 1013.0
20260903231602 89 121 0.0 4.0 0.00 0.00 0.00 63 1013.0
20260903231039 89 124 1.0 5.0 0.00 0.00 0.00 63 1013.0
20260903230539 89 194 1.0 6.0 0.00 0.00 0.00 62 1013.1
20260903230108 89 158 1.0 6.0 0.00 0.00 0.00 63 1013.0
20260903225540 89 44 0.0 6.0 0.00 0.00 0.00 62 1012.9
20260903225037 89 124 2.0 6.0 0.00 0.00 0.00 62 1012.9
20260903224611 89 113 1.0 6.0 0.00 0.00 0.00 62 1012.8
20260903224037 90 172 1.0 6.0 0.00 0.00 0.00 62 1012.9
20260903223540 89 199 1.0 6.0 0.00 0.00 0.00 62 1012.9
20260903223104 90 162 2.0 6.0 0.00 0.00 0.00 63 1012.9
20260903222537 90 101 1.0 4.0 0.00 0.00 0.00 63 1012.9
20260903222041 90 229 1.0 4.0 0.00 0.00 0.00 63 1012.9
20260903221600 90 149 1.0 3.0 0.00 0.00 0.00 63 1012.8
20260903221040 90 214 1.0 5.0 0.00 0.00 0.00 63 1013.0
20260903220539 90 200 1.0 5.0 0.00 0.00 0.00 63 1013.0
20260903220122 90 144 1.0 6.0 0.00 0.00 0.00 63 1013.0
20260903215539 90 68 2.0 6.0 0.00 0.00 0.00 63 1012.9
20260903215037 90 186 1.0 4.0 0.00 0.00 0.00 62 1012.9
20260903214556 90 197 1.0 3.0 0.00 0.00 0.00 63 1013.1
20260903214040 90 195 1.0 3.0 0.00 0.00 0.00 63 1013.2
20260903213539 90 200 1.0 4.0 0.00 0.00 0.00 63 1013.1
20260903213105 89 197 2.0 4.0 0.00 0.00 0.00 63 1013.3
20260903212537 90 119 1.0 4.0 0.00 0.00 0.00 64 1013.3
20260903212040 90 134 1.0 4.0 0.00 0.00 0.00 64 1013.3
20260903211620 90 174 0.0 4.0 0.00 0.00 0.00 63 1013.4
20260903211041 90 165 1.0 4.0 0.00 0.00 0.00 64 1013.4
20260903210538 90 0 1.0 4.0 0.00 0.00 0.00 64 1013.4
20260903210103 90 213 1.0 3.0 0.00 0.00 0.00 63 1013.5
20260903205540 90 163 1.0 4.0 0.00 0.00 0.00 64 1013.5
20260903205039 90 207 1.0 4.0 0.00 0.00 0.00 63 1013.7
20260903204554 90 169 2.0 4.0 0.00 0.00 0.00 64 1013.7
20260903204039 90 117 2.0 4.0 0.00 0.00 0.00 64 1013.7
20260903203537 89 122 1.0 3.0 0.00 0.00 0.00 66 1013.7
20260903203103 88 170 1.0 3.0 0.00 0.00 0.00 66 1013.8
20260903202540 88 185 1.0 4.0 0.00 0.00 0.00 66 1013.8
20260903202040 88 182 1.0 4.0 0.00 0.00 0.00 66 1013.8
20260903201602 88 194 2.0 4.0 0.00 0.00 0.00 66 1014.0